When you browse on this site, cookies collect data to enhance your experience and personalize the content and advertising you see.
Visit our Privacy Policy to learn more. By continuing to use the site, you agree to this use of cookies and data.
  • In Schweiz
  • Länderverzeichnis
  • Für 7 Tage
  • Wassertemperatur
  • Satellitenkarten
  • Wetterkarte
  • Widgets
  • user-avatar
    Anmelden

    Stündliche Wetter Genf

    Heute, 25 April, Donnerstag

    Zeit Temperatur Niederschläge Wind Luftdruck Luftfeuchtigkeit
    00:00 +9°C° 0 mm 1 m/S 721 mmHg 85%
    01:00 +8°C° 0 mm 1 m/S 721 mmHg 84%
    02:00 +8°C° 0 mm 1 m/S 721 mmHg 83%
    03:00 +8°C° 0 mm 1 m/S 721 mmHg 83%
    04:00 +9°C° 0 mm 1 m/S 721 mmHg 79%
    05:00 +10°C° 0 mm 1 m/S 721 mmHg 76%
    06:00 +11°C° 0 mm 1 m/S 721 mmHg 73%
    07:00 +14°C° 0 mm 1 m/S 721 mmHg 63%
    08:00 +16°C° 0 mm 1 m/S 721 mmHg 53%
    09:00 +19°C° 0 mm 2 m/S 721 mmHg 43%
    10:00 +20°C° 0 mm 2 m/S 722 mmHg 39%
    11:00 +22°C° 0 mm 3 m/S 722 mmHg 34%
    12:00 +23°C° 0 mm 4 m/S 722 mmHg 30%
    13:00 +20°C° 0.5 mm 3 m/S 722 mmHg 45%
    14:00 +18°C° 0.5 mm 3 m/S 722 mmHg 61%
    15:00 +15°C° 0.5 mm 2 m/S 722 mmHg 77%
    16:00 +14°C° 0.9 mm 2 m/S 722 mmHg 81%
    17:00 +13°C° 0.9 mm 2 m/S 722 mmHg 85%
    18:00 +12°C° 0.9 mm 2 m/S 722 mmHg 90%
    19:00 +11°C° 2 mm 1 m/S 722 mmHg 91%
    20:00 +11°C° 2 mm 1 m/S 722 mmHg 93%
    21:00 +10°C° 2 mm 1 m/S 723 mmHg 95%
    22:00 +9°C° 3 mm 1 m/S 723 mmHg 95%
    23:00 +9°C° 3 mm 1 m/S 723 mmHg 95%

    Morgen, 26 April, Freitag

    Zeit Temperatur Niederschläge Wind Luftdruck Luftfeuchtigkeit
    00:00 +8°C° 3 mm 1 m/S 722 mmHg 95%
    01:00 +8°C° 2.7 mm 1 m/S 722 mmHg 95%
    02:00 +8°C° 2.7 mm 1 m/S 722 mmHg 95%
    03:00 +7°C° 2.7 mm 0 m/S 722 mmHg 95%
    04:00 +8°C° 1.8 mm 1 m/S 723 mmHg 95%
    05:00 +7°C° 1.8 mm 1 m/S 723 mmHg 95%
    06:00 +7°C° 1.8 mm 1 m/S 723 mmHg 95%
    07:00 +8°C° 1.3 mm 1 m/S 724 mmHg 94%
    08:00 +8°C° 1.3 mm 1 m/S 724 mmHg 93%
    09:00 +8°C° 1.3 mm 1 m/S 725 mmHg 92%
    10:00 +9°C° 0.4 mm 1 m/S 725 mmHg 89%
    11:00 +10°C° 0.4 mm 1 m/S 726 mmHg 86%
    12:00 +10°C° 0.4 mm 1 m/S 726 mmHg 83%
    13:00 +11°C° 0 mm 1 m/S 726 mmHg 78%
    14:00 +12°C° 0 mm 1 m/S 726 mmHg 73%
    15:00 +13°C° 0 mm 1 m/S 726 mmHg 67%
    16:00 +12°C° 0 mm 1 m/S 727 mmHg 70%
    17:00 +11°C° 0 mm 1 m/S 727 mmHg 73%
    18:00 +9°C° 0 mm 0 m/S 727 mmHg 76%
    19:00 +9°C° 0 mm 1 m/S 728 mmHg 78%
    20:00 +8°C° 0 mm 1 m/S 728 mmHg 80%
    21:00 +7°C° 0 mm 1 m/S 729 mmHg 82%
    22:00 +8°C° 0.4 mm 1 m/S 729 mmHg 84%
    23:00 +8°C° 0.4 mm 1 m/S 729 mmHg 86%

    übermorgen, 27 April, Samstag

    Zeit Temperatur Niederschläge Wind Luftdruck Luftfeuchtigkeit
    00:00 +8°C° 0.4 mm 1 m/S 730 mmHg 88%
    01:00 +7°C° 1 mm 2 m/S 730 mmHg 90%
    02:00 +7°C° 1 mm 2 m/S 730 mmHg 92%
    03:00 +7°C° 1 mm 2 m/S 730 mmHg 94%
    04:00 +7°C° 0.1 mm 2 m/S 730 mmHg 94%
    05:00 +7°C° 0.1 mm 2 m/S 730 mmHg 93%
    06:00 +7°C° 0.1 mm 2 m/S 729 mmHg 93%
    07:00 +8°C° 0.1 mm 2 m/S 729 mmHg 88%
    08:00 +8°C° 0.1 mm 3 m/S 729 mmHg 84%
    09:00 +9°C° 0.1 mm 3 m/S 729 mmHg 80%
    10:00 +10°C° 0.1 mm 4 m/S 728 mmHg 77%
    11:00 +11°C° 0.1 mm 4 m/S 728 mmHg 73%
    12:00 +12°C° 0.1 mm 4 m/S 728 mmHg 70%
    13:00 +11°C° 0.8 mm 4 m/S 727 mmHg 77%
    14:00 +10°C° 0.8 mm 4 m/S 727 mmHg 83%
    15:00 +9°C° 0.8 mm 3 m/S 727 mmHg 90%
    16:00 +9°C° 0.4 mm 3 m/S 727 mmHg 89%
    17:00 +8°C° 0.4 mm 2 m/S 727 mmHg 88%
    18:00 +8°C° 0.4 mm 2 m/S 728 mmHg 88%
    19:00 +8°C° 0.5 mm 2 m/S 728 mmHg 89%
    20:00 +7°C° 0.5 mm 2 m/S 728 mmHg 91%
    21:00 +7°C° 0.5 mm 2 m/S 729 mmHg 92%
    22:00 +6°C° 1.1 mm 2 m/S 729 mmHg 93%
    23:00 +6°C° 1.1 mm 2 m/S 728 mmHg 93%

    28 April, Sonntag

    Zeit Temperatur Niederschläge Wind Luftdruck Luftfeuchtigkeit
    00:00 +6°C° 1.1 mm 2 m/S 728 mmHg 94%
    01:00 +6°C° 1.8 mm 2 m/S 728 mmHg 94%
    02:00 +6°C° 1.8 mm 2 m/S 728 mmHg 94%
    03:00 +5°C° 1.8 mm 2 m/S 728 mmHg 95%
    04:00 +5°C° 1.1 mm 2 m/S 728 mmHg 94%
    05:00 +5°C° 1.1 mm 2 m/S 728 mmHg 94%
    06:00 +5°C° 1.1 mm 2 m/S 728 mmHg 94%
    07:00 +6°C° 0.7 mm 2 m/S 728 mmHg 93%
    08:00 +7°C° 0.7 mm 1 m/S 729 mmHg 92%
    09:00 +8°C° 0.7 mm 1 m/S 729 mmHg 91%
    10:00 +9°C° 0.5 mm 1 m/S 729 mmHg 89%
    11:00 +9°C° 0.5 mm 1 m/S 728 mmHg 88%
    12:00 +10°C° 0.5 mm 1 m/S 728 mmHg 87%
    13:00 +10°C° 0.5 mm 1 m/S 728 mmHg 86%
    14:00 +10°C° 0.5 mm 1 m/S 728 mmHg 85%
    15:00 +11°C° 0.5 mm 1 m/S 728 mmHg 85%
    16:00 +10°C° 0.2 mm 1 m/S 728 mmHg 87%
    17:00 +10°C° 0.2 mm 1 m/S 728 mmHg 89%
    18:00 +9°C° 0.2 mm 1 m/S 728 mmHg 91%
    19:00 +8°C° 0.1 mm 1 m/S 729 mmHg 91%
    20:00 +8°C° 0.1 mm 1 m/S 729 mmHg 92%
    21:00 +7°C° 0.1 mm 1 m/S 730 mmHg 93%
    22:00 +7°C° 0 mm 1 m/S 730 mmHg 93%
    23:00 +6°C° 0 mm 1 m/S 730 mmHg 93%

    29 April, Montag

    Zeit Temperatur Niederschläge Wind Luftdruck Luftfeuchtigkeit
    00:00 +6°C° 0 mm 1 m/S 729 mmHg 93%
    01:00 +6°C° 0 mm 1 m/S 729 mmHg 93%
    02:00 +6°C° 0 mm 1 m/S 729 mmHg 93%
    03:00 +5°C° 0 mm 1 m/S 729 mmHg 93%
    04:00 +6°C° 0 mm 1 m/S 729 mmHg 92%
    05:00 +6°C° 0 mm 1 m/S 729 mmHg 91%
    06:00 +7°C° 0 mm 1 m/S 729 mmHg 90%
    07:00 +7°C° 0 mm 2 m/S 729 mmHg 86%
    08:00 +8°C° 0 mm 2 m/S 728 mmHg 82%
    09:00 +9°C° 0 mm 2 m/S 728 mmHg 78%
    10:00 +10°C° 0 mm 2 m/S 728 mmHg 75%
    11:00 +11°C° 0 mm 3 m/S 727 mmHg 73%
    12:00 +12°C° 0 mm 3 m/S 727 mmHg 70%
    13:00 +13°C° 0 mm 3 m/S 727 mmHg 70%
    14:00 +13°C° 0 mm 3 m/S 727 mmHg 70%
    15:00 +13°C° 0 mm 3 m/S 726 mmHg 70%
    16:00 +13°C° 0 mm 2 m/S 726 mmHg 75%
    17:00 +12°C° 0 mm 2 m/S 726 mmHg 80%
    18:00 +11°C° 0 mm 1 m/S 726 mmHg 84%
    19:00 +10°C° 0 mm 1 m/S 726 mmHg 87%
    20:00 +9°C° 0 mm 1 m/S 726 mmHg 89%
    21:00 +8°C° 0 mm 1 m/S 727 mmHg 92%
    22:00 +8°C° 0 mm 1 m/S 726 mmHg 92%
    23:00 +7°C° 0 mm 1 m/S 726 mmHg 93%

    30 April, Dienstag

    Zeit Temperatur Niederschläge Wind Luftdruck Luftfeuchtigkeit
    00:00 +7°C° 0 mm 1 m/S 726 mmHg 94%
    01:00 +7°C° 0 mm 1 m/S 726 mmHg 93%
    02:00 +7°C° 0 mm 1 m/S 725 mmHg 93%
    03:00 +6°C° 0 mm 1 m/S 725 mmHg 92%
    04:00 +7°C° 0 mm 1 m/S 725 mmHg 90%
    05:00 +8°C° 0 mm 1 m/S 725 mmHg 87%
    06:00 +9°C° 0 mm 1 m/S 725 mmHg 84%
    07:00 +10°C° 0 mm 1 m/S 725 mmHg 80%
    08:00 +12°C° 0 mm 1 m/S 724 mmHg 75%
    09:00 +14°C° 0 mm 2 m/S 724 mmHg 71%
    10:00 +15°C° 0 mm 2 m/S 724 mmHg 69%
    11:00 +16°C° 0 mm 2 m/S 724 mmHg 67%
    12:00 +17°C° 0 mm 2 m/S 724 mmHg 65%
    13:00 +17°C° 0 mm 2 m/S 723 mmHg 66%
    14:00 +17°C° 0 mm 2 m/S 723 mmHg 67%
    15:00 +17°C° 0 mm 2 m/S 723 mmHg 68%
    16:00 +16°C° 0 mm 2 m/S 723 mmHg 74%
    17:00 +15°C° 0 mm 1 m/S 723 mmHg 80%
    18:00 +14°C° 0 mm 1 m/S 723 mmHg 86%
    19:00 +12°C° 0 mm 1 m/S 723 mmHg 88%
    20:00 +11°C° 0 mm 1 m/S 724 mmHg 91%
    21:00 +10°C° 0 mm 1 m/S 724 mmHg 93%
    22:00 +9°C° 0 mm 1 m/S 724 mmHg 93%
    23:00 +9°C° 0 mm 1 m/S 724 mmHg 93%
    Mehr zeigen